Flag for Canada Weather past 2 weeks in Selkirk, Manitoba, Canada

Now
67 °F

Mild.


Feels Like: 67 °F
Forecast: 56 / 72 °F
Wind: 7 mph from Southwest

Location: Winnipeg The Forks

Current Time: Sep 23, 2014 at 11:34:37 PM

Latest Report: Sep 23, 2014 at 10:00 PM


Visibility: N/A

Pressure: 29.93 "Hg

Humidity: 54%

Dew point: 50 °F

Location of SelkirkLocation

Historic Weather in Selkirk — Graph

°F

Selkirk temperature yesterday

Maximum temperature yesterday: 79 °F (at 5:00 PM)
Minimum temperature yesterday: 49 °F (at 7:00 AM)
Average temperature yesterday: 63 °F

Past Weeks' High & Low Weather Summary

 TemperatureHumidityPressure
High79 °F (Sep 22, 5:00 PM)96% (Sep 21, 9:00 AM)30.44 "Hg (Sep 21, 9:00 AM)
Low36 °F (Sep 18, 4:00 AM)24% (Sep 15, 4:00 PM)29.43 "Hg (Sep 19, 12:00 PM)
Average54 °F67%30.04 "Hg
* Reported Sep 8 10:00 PM — Sep 23 10:00 PM, Selkirk, Weather by CustomWeather, © 2014

Note: Actual official high and low records may vary slightly from our data, if they occured in-between our weather recording intervals... More about our weather records

Advertising

Selkirk weather history for previous 24 hours

 ConditionsComfort  
Time TempWeatherWind HumidityBarometerVisibility
10:00 PM
Sep 23
67 °FMild.7 mph54%29.93 "HgN/A
9:00 PM70 °FMild.5 mph55%29.92 "HgN/A
8:00 PM72 °FMild.5 mph59%29.91 "HgN/A
7:00 PM75 °FMild.5 mph55%29.90 "HgN/A
6:00 PM77 °FMild.5 mph51%29.91 "HgN/A
5:00 PM78 °FWarm.6 mph49%29.91 "HgN/A
4:00 PM78 °FWarm.7 mph46%29.91 "HgN/A
3:00 PM78 °FWarm.6 mph47%29.92 "HgN/A
2:00 PM76 °FMild.5 mph48%29.93 "HgN/A
1:00 PM73 °FMild.5 mph53%29.95 "HgN/A
12:00 PM71 °FMild.7 mph55%29.96 "HgN/A
11:00 AM67 °FMild.5 mph59%29.96 "HgN/A
10:00 AM62 °FMild.3 mph67%29.97 "HgN/A
9:00 AM58 °FCool.1 mph74%29.97 "HgN/A
8:00 AM54 °FCool.1 mph81%29.98 "HgN/A
7:00 AM51 °FCool.1 mph86%29.98 "HgN/A
6:00 AM53 °FCool.1 mph79%29.98 "HgN/A
5:00 AM54 °FCool.1 mph79%29.98 "HgN/A
4:00 AM55 °FCool.1 mph77%29.98 "HgN/A
3:00 AM55 °FCool.1 mph77%29.99 "HgN/A
2:00 AM57 °FCool.1 mph72%29.99 "HgN/A
1:00 AM60 °FCool.1 mph65%29.98 "HgN/A
12:00 AM61 °FCool.No wind62%29.99 "HgN/A
11:00 PM
Sep 22
64 °FMild.1 mph55%29.99 "HgN/A
Weather by CustomWeather, © 2014

See weather overviewHow to use our weather pages